Regional Weather Roundup
Issued by NWS

Home | Current Version | Previous Version | Text Only | Print | Product List | Glossary On
Versions: 1 2 3 4 5 6 7 8 9 10 11 12 13 14 15 16 17 18 19 20 21 22 23 24 25 26 27 28 29 30 31 32 33 34 35 36 37 38 39 40 41 42 43 44 45 46 47 48 49 50
000
ASUS45 KABQ 231910
RWRNM
WEATHER ROUNDUP FOR NEW MEXICO
NATIONAL WEATHER SERVICE ALBUQUERQUE NM
100 PM MDT TUE SEP 23 2014

NOTE: "FAIR" MEANS FEW OR NO CLOUDS BELOW 12,000 FEET AGL WITH NO
       SIGNIFICANT WEATHER OR OBSTRUCTIONS TO VISION.

      THIS PRODUCT IS RELEASED AS TWO VERSIONS.  ONE VERSION NEAR
      THE TOP OF THE HOUR CONTAINING PRELIMINARY DATA FROM ALBUQUERQUE
      AND OTHER STATIONS.  A FINAL VERSION WITH ADDITIONAL DATA IS
      ISSUED ABOUT 10 MINUTES AFTER THE HOUR.

NMZ501-503-504-510>518-232000-
NORTHWEST PLATEAU/NORTHCENTRAL MOUNTAINS

CITY           SKY/WX    TMP DP  RH WIND       PRES   REMARKS
FARMINGTON     FAIR      80  46  30 W10       30.23F
LOS ALAMOS     FAIR      69  53  56 E7        30.36S
SANTA FE       FAIR      73  53  49 S5        30.29F
TAOS           CLOUDY    70  46  43 W12       30.32F
ANGEL FIRE     FAIR      65  45  46 SW13G18   30.41S

$$
NMZ402-403-502-505>509-232000-
WESTCENTRAL MOUNTAINS/SOUTHWEST MOUNTAINS

CITY           SKY/WX    TMP DP  RH WIND       PRES   REMARKS
GALLUP         FAIR      76  42  29 VRB3      30.31F
GRANTS         FAIR      75  46  35 SE3       30.32F
SILVER CITY    FAIR      72  61  68 SE7       30.29F

$$
NMZ407-409-411-412-232000-
SOUTHERN DESERTS

CITY           SKY/WX    TMP DP  RH WIND       PRES   REMARKS
LORDSBURG      FAIR      79  61  53 W44G64    30.19F
DEMING         FAIR      78  64  61 E5        30.20F
LAS CRUCES     FAIR      76  62  60 E3        30.22F
HOLLOMAN AFB   FAIR      77  62  59 CALM      30.18
ALAMOGORDO     FAIR      77  61  57 CALM      30.21F
T OR C         FAIR      76  60  57 SW6       30.22F

$$
NMZ519>523-232000-
CENTRAL VALLEYS/CENTRAL HIGHLANDS

CITY           SKY/WX    TMP DP  RH WIND       PRES   REMARKS
ALBUQUERQUE    FAIR      73  57  57 VRB6      30.26F
DOUBLE EAGLE   MOSUNNY   72  55  56 SE6       30.30F
MORIARTY ARPT  MOCLDY    74  54  48 S3        30.29F
CLINES CORNERS FAIR      72  53  51 W10       30.33F
BELEN          FAIR      75  58  54 S7        30.25F
SOCORRO        FAIR      75  63  65 SE5       30.24F

$$
NMZ524>526-539-540-232000-
SOUTHCENTRAL MOUNTAINS

CITY           SKY/WX    TMP DP  RH WIND       PRES   REMARKS
RUIDOSO        NOT AVBL

$$
NMZ527>531-232000-
NORTHEAST HIGHLANDS/NORTHEAST PLAINS

CITY           SKY/WX    TMP DP  RH WIND       PRES   REMARKS
LAS VEGAS      FAIR      70  55  59 SE8       30.30F
RATON          FAIR      75  46  35 VRB3      30.23F
CLAYTON        FAIR      80  53  39 SW14      30.15F

$$
NMZ532>537-232000-
EASTCENTRAL PLAINS

CITY           SKY/WX    TMP DP  RH WIND       PRES   REMARKS
TUCUMCARI      FAIR      81  59  47 SW17G24   30.14F
CANNON AFB     PTSUNNY   78  53  43 SW20      30.20F
CLOVIS AIRPORT   N/A     77  59  53 S20       30.21F

$$
NMZ028-029-538-232000-
SOUTHEAST PLAINS

CITY           SKY/WX    TMP DP  RH WIND       PRES   REMARKS
ROSWELL        PTSUNNY   75  61  61 SE8       30.18F
CARLSBAD       FAIR      78  68  71 S8        30.15F
HOBBS          MOSUNNY   73  63  68 S12       30.21F


$$



USA.gov is the U.S. government's official web portal to all federal, state and local government web resources and services.